www.pogodaiklimat.ru

Погода и климат >> Архив погоды >> Австралия >> Южная Австралия >> Наллабор


ПОГОДА в Наллаборе

  • Прогноз погоды в Наллаборе
  • Монитор погоды в Наллаборе

АРХИВ ПОГОДЫ в Наллаборе

Время (UTC), дата Ветер
(напр.,м/с)
 
Видим.   Явления Облачность Т
(С)
Тd
(С)
f
(%)
Тe
(С)
Тes
(С)
Комфортность P
(гПа)
Po
(гПа)
Тmin
(С)
Tmax
(С)
R
(мм)
R24
(мм)
S
(см)
07 12.08 ЮВ 5 н/о н/о +14.4 +11.7 84 +13 +13 1027.4 1019.5
08 12.08 ЮВ 5 н/о н/о +14.0 +11.7 86 +12 +12 1027.6 1019.7
09 12.08 ЮВ 4 н/о н/о +11.8 +11.0 95 +10 +10 1027.9 1020.0
10 12.08 ЮВ 4 н/о н/о +9.6 +9.5 99 +7 +7 1028.3 1020.4
11 12.08 ЮВ 3 н/о 1/1 1000 м
[]
+9.4 +9.4 100 +7 +7 1028.6 1020.7
12 12.08 В 3 н/о н/о +9.1 +9.1 100 +7 +7 1028.8 1020.9
13 12.08 В 4 н/о н/о +7.8 +7.8 100 +4 +4 1028.6 1020.7
14 12.08 В 4 н/о в посл. час дождь {туман} н/о +6.4 +6.4 100 +3 +3 1028.7 1020.8 +16.1
15 12.08 В 5 н/о н/о +6.1 +6.1 100 +2 +2 1028.0 1020.1
16 12.08 В 5 н/о н/о +5.3 +5.3 100 +1 +1 1027.6 1019.7
17 12.08 В 4 н/о {туман} н/о +4.3 +4.3 100 -0 -0 1027.3 1019.4 0.2
18 12.08 СВ 4 н/о н/о +2.6 +2.6 100 -2 -2 1027.0 1019.1
19 12.08 С 5 н/о н/о +1.8 +1.8 100 -4 -4 1027.0 1019.1
20 12.08 СВ 5 н/о н/о +4.4 +4.4 100 -1 -1 1026.7 1018.8
21 12.08 СВ 5 н/о н/о +4.1 +4.1 100 -1 -1 1027.1 1019.2
22 12.08 СВ 5 н/о н/о +4.3 +4.3 100 -1 -1 1027.4 1019.5
23 12.08 СВ 5 н/о н/о +6.5 +6.5 100 +2 +2 1027.7 1019.8 0.4
00 13.08 С 6 н/о н/о +9.9 +9.3 96 +6 +6 1027.8 1019.9
01 13.08 С 7 н/о н/о +13.7 +8.3 70 +11 +11 1027.6 1019.7
02 13.08 С 7 н/о н/о +15.5 +7.8 60 +14 +14 1026.8 1018.9 +1.9
03 13.08 С 6 н/о н/о +17.5 +7.8 53 +17 +17 1025.7 1017.8
04 13.08 С 5 н/о н/о +18.6 +7.4 48 +19 +19 1024.0 1016.1
05 13.08 С 6 н/о н/о +19.2 +6.7 44 +19 +19 1022.8 1014.9
08 13.08 С 6 н/о н/о +19.2 +4.6 38 +19 +19 1021.5 1013.6
09 13.08 С 4 н/о н/о +15.4 +4.2 47 +15 +15 1021.8 1013.9
10 13.08 В 4 н/о н/о +11.1 +8.1 82 +9 +9 1022.5 1014.6
11 13.08 СВ 4 н/о н/о +9.1 +6.9 86 +6 +6 1022.8 1014.9
12 13.08 СВ 5 н/о н/о +10.1 +4.7 69 +7 +7 1022.6 1014.7
13 13.08 СВ 5 н/о н/о +10.5 +3.8 63 +8 +8 1022.3 1014.4
14 13.08 С 6 н/о н/о +11.0 +2.8 57 +8 +8 1021.9 1014.0 +21.0
15 13.08 С 6 н/о н/о +9.2 +2.3 62 +6 +6 1021.4 1013.5
16 13.08 СВ 6 н/о н/о +8.9 +2.3 63 +6 +6 1020.6 1012.7
17 13.08 С 6 н/о н/о +8.7 +2.1 63 +5 +5 1019.8 1012.0
18 13.08 С 6 н/о н/о +8.1 +1.9 65 +4 +4 1019.3 1011.5
19 13.08 С 6 н/о н/о +7.5 +1.8 67 +4 +4 1018.9 1011.1
20 13.08 С 6 н/о н/о +7.0 +1.7 69 +3 +3 1018.7 1010.9
21 13.08 С 5 н/о н/о +6.7 +1.6 70 +3 +3 1018.7 1010.9
22 13.08 С 6 н/о н/о +6.3 +1.4 71 +2 +2 1018.7 1010.9
23 13.08 С 7 н/о н/о +10.6 +2.2 56 +7 +7 1018.8 1011.0
00 14.08 С 8 н/о н/о +15.1 +2.3 42 +13 +13 1019.1 1011.3
01 14.08 С 8 н/о н/о +19.9 +0.9 28 +19 +19 1018.6 1010.8
02 14.08 СЗ 8 н/о 1/0
[]
+23.3 -0.2 21 +22 +22 комфорт 1018.2 1010.4 +6.0
03 14.08 СЗ 8 н/о н/о +26.2 0.0 18 +24 +24 комфорт 1017.1 1009.3
04 14.08 СЗ 8 н/о н/о +27.3 -1.6 15 +25 +25 комфорт 1016.0 1008.2
05 14.08 СЗ 7 н/о 9/0
[]
+27.3 -1.6 15 +25 +25 комфорт 1015.3 1007.5
06 14.08 С 8 н/о н/о +26.8 -1.1 16 +25 +25 комфорт 1014.8 1007.0
07 14.08 СЗ 6 н/о н/о +26.3 -1.5 16 +24 +24 комфорт 1014.9 1007.1
08 14.08 Ю 3 н/о 10/0
[]
+21.5 +4.6 33 +22 +22 комфорт 1015.3 1007.5
09 14.08 ЮВ 4 н/о н/о +18.6 +7.1 47 +19 +19 1015.8 1008.0
10 14.08 Ю 5 н/о н/о +18.6 +6.1 44 +19 +19 1016.8 1009.0
11 14.08 Ю 4 н/о 10/0
[]
+16.1 +8.1 59 +16 +16 1017.3 1009.5
12 14.08 ЮВ 3 н/о н/о +13.8 +7.8 67 +13 +13 1017.4 1009.6
13 14.08 В 4 н/о н/о +14.5 +9.1 70 +13 +13 1017.0 1009.2
14 14.08 В 4 н/о 10/0
[]
+15.1 +8.8 66 +14 +14 1016.8 1009.0 +28.4
15 14.08 СВ 3 н/о н/о +13.4 +8.5 72 +12 +12 1016.4 1008.6
16 14.08 ЮВ 2 н/о н/о +13.4 +8.5 72 +13 +13 1016.2 1008.4
17 14.08 Ю 4 н/о 10/0
[]
+12.4 +8.3 76 +11 +11 1015.5 1007.7
18 14.08 В 4 н/о н/о +12.8 +10.2 84 +11 +11 1014.6 1006.8
19 14.08 СВ 4 н/о н/о +12.7 +7.8 72 +11 +11 1013.9 1006.1
20 14.08 С 5 н/о 10/0
[]
+13.7 +2.0 45 +12 +12 1013.5 1005.7
21 14.08 С 6 н/о н/о +14.0 -1.2 35 +12 +12 1013.4 1005.6
22 14.08 С 6 н/о н/о +12.4 -1.9 37 +10 +10 1013.6 1005.8
23 14.08 С 7 н/о 9/0
[]
+15.7 -2.3 29 +14 +14 1013.8 1006.0
00 15.08 СЗ 9 н/о н/о +19.7 -2.6 22 +19 +19 1014.5 1006.7
01 15.08 СЗ 8 н/о н/о +23.6 -1.3 19 +22 +22 комфорт 1014.3 1006.5
02 15.08 З 9 н/о 8/0
[]
+24.3 +3.0 25 +24 +24 комфорт 1014.5 1006.7 +12.4
03 15.08 З 10 н/о н/о +26.0 +6.6 29 +26 +26 жарко 1014.2 1006.4
04 15.08 З 11 н/о н/о +25.5 +7.1 31 +25 +25 комфорт 1013.7 1005.9
05 15.08 ЮЗ 10 н/о 8/0
[]
+21.5 +10.9 51 +23 +23 комфорт 1014.0 1006.2
06 15.08 ЮЗ 9 н/о н/о +19.6 +11.1 58 +20 +20 1014.7 1006.9
07 15.08 ЮЗ 9 н/о н/о +19.3 +11.6 61 +20 +20 1015.1 1007.3
08 15.08 ЮЗ 8 н/о 10/0 2000 м
[]
+17.9 +11.0 64 +17 +17 1015.9 1008.1
09 15.08 ЮЗ 7 н/о н/о +15.7 +11.7 77 +14 +14 1016.5 1008.7
10 15.08 ЮЗ 6 н/о н/о +14.4 +12.8 90 +13 +13 1017.6 1009.8
11 15.08 ЮЗ 5 н/о 10/0
[]
+13.6 +13.4 99 +12 +12 1018.7 1010.9
12 15.08 ЮЗ 4 н/о н/о +13.7 +13.5 99 +12 +12 1019.4 1011.6
13 15.08 ЮЗ 4 н/о н/о +13.6 +13.4 99 +12 +12 1020.1 1012.2
14 15.08 Ю 5 н/о 10/10 300 м
[]
+13.7 +13.5 99 +12 +12 1020.3 1012.4 +27.0
15 15.08 Ю 4 н/о н/о +13.6 +13.4 99 +12 +12 1021.0 1013.1
16 15.08 Ю 4 н/о н/о +13.0 +12.5 97 +11 +11 1020.4 1012.5
17 15.08 Ю 3 н/о 10/10 300 м
[]
+11.8 +11.6 99 +10 +10 1020.2 1012.3
18 15.08 ЮЗ 4 н/о н/о +11.7 +11.5 99 +10 +10 1020.4 1012.5
19 15.08 Ю 3 н/о н/о +11.1 +10.9 99 +9 +9 1020.6 1012.7
20 15.08 Ю 4 н/о 10/10 600 м
[]
+11.4 +11.2 99 +9 +9 1020.5 1012.6
21 15.08 Ю 3 н/о н/о +11.7 +11.5 99 +10 +10 1020.6 1012.7
22 15.08 Ю 3 н/о н/о +10.8 +10.6 99 +9 +9 1021.3 1013.4
23 15.08 Ю 3 н/о 10/10 600 м
[]
+11.9 +11.7 99 +10 +10 1022.1 1014.2
00 16.08 Ю 4 н/о н/о +14.1 +11.8 86 +13 +13 1023.2 1015.3
01 16.08 В 4 н/о н/о +14.4 +11.4 82 +13 +13 1023.2 1015.3
02 16.08 ЮВ 4 н/о 10/10 600 м
[]
+14.2 +11.5 84 +13 +13 1023.1 1015.2 +10.9
03 16.08 ЮВ 5 н/о н/о +15.4 +10.6 73 +14 +14 1022.4 1014.5
04 16.08 ЮВ 5 н/о н/о +15.5 +10.3 71 +14 +14 1021.8 1013.9
05 16.08 ЮВ 5 н/о 9/9 600 м
[]
+15.1 +9.9 71 +14 +14 1021.4 1013.5
06 16.08 ЮВ 5 н/о н/о +15.2 +9.8 70 +14 +14 1021.1 1013.2
07 16.08 ЮВ 5 н/о н/о +15.0 +9.1 68 +14 +14 1020.9 1013.0
08 16.08 ЮВ 5 н/о н/о +14.2 +9.0 71 +13 +13 1021.1 1013.2
09 16.08 ЮВ 4 н/о н/о +12.5 +8.6 77 +11 +11 1021.2 1013.3
10 16.08 В 5 н/о н/о +10.2 +7.8 85 +7 +7 1021.0 1013.1
11 16.08 В 5 н/о н/о +9.4 +7.8 90 +6 +6 1020.9 1013.0
12 16.08 В 4 н/о н/о +8.1 +7.2 94 +5 +5 1020.8 1012.9
13 16.08 В 4 н/о н/о +7.2 +7.1 99 +4 +4 1020.6 1012.7
14 16.08 В 4 н/о н/о +7.1 +7.0 99 +3 +3 1019.9 1012.1 +16.5
15 16.08 СВ 4 н/о н/о +7.2 +7.1 99 +3 +3 1019.3 1011.5
16 16.08 СВ 5 н/о н/о +6.4 +6.3 99 +2 +2 1018.9 1011.1
17 16.08 СВ 5 н/о н/о +5.7 +5.6 99 +1 +1 1017.9 1010.1
18 16.08 СВ 4 н/о н/о +5.5 +5.4 99 +1 +1 1017.2 1009.4
19 16.08 С 5 н/о н/о +6.4 +6.4 100 +2 +2 1016.6 1008.8
20 16.08 С 5 н/о н/о +5.8 +5.8 100 +1 +1 1016.2 1008.4
21 16.08 С 5 н/о н/о +6.8 +6.8 100 +3 +3 1016.3 1008.5
22 16.08 С 4 н/о н/о +6.2 +6.2 100 +2 +2 1016.3 1008.5
23 16.08 С 4 н/о н/о +9.4 +9.4 100 +6 +6 1016.6 1008.8
00 17.08 С 7 н/о н/о +14.2 +10.4 78 +12 +12 1016.1 1008.3
01 17.08 С 8 н/о н/о +17.3 +10.4 64 +16 +16 1015.4 1007.6
02 17.08 СЗ 10 н/о н/о +19.8 +10.5 55 +20 +20 1014.2 1006.4 +5.1
03 17.08 СЗ 11 н/о н/о +21.7 +7.5 40 +23 +23 комфорт 1013.2 1005.4
04 17.08 СЗ 10 н/о н/о +21.2 +5.6 36 +22 +22 комфорт 1012.1 1004.3
05 17.08 СЗ 10 н/о 1/0
[]
+23.2 +5.2 31 +23 +23 комфорт 1011.2 1003.4
06 17.08 З 11 н/о н/о +23.7 +4.1 28 +23 +23 комфорт 1010.8 1003.0
07 17.08 ЮЗ 13 н/о н/о +17.4 +7.2 51 +16 +16 1011.9 1004.1
08 17.08 ЮЗ 13 н/о н/о +15.2 +8.4 64 +13 +13 1013.6 1005.8
09 17.08 ЮЗ 10 н/о н/о +13.7 +8.1 69 +11 +11 1015.2 1007.4
10 17.08 ЮЗ 9 н/о н/о +13.0 +8.3 73 +10 +10 1016.6 1008.8
11 17.08 З 8 н/о 5/5 600 м
[]
+12.8 +8.5 75 +10 +10 1017.6 1009.8
12 17.08 З 9 н/о н/о +11.6 +7.5 76 +8 +8 1018.7 1010.9
13 17.08 З 8 н/о н/о +11.9 +5.5 65 +9 +9 1019.3 1011.5
14 17.08 З 5 н/о 3/0
[]
+9.4 +4.6 72 +6 +6 1019.7 1011.9 +24.1
15 17.08 З 5 н/о н/о +8.9 +5.1 77 +6 +6 1019.5 1011.7
16 17.08 СЗ 6 н/о н/о +8.0 +5.3 83 +4 +4 1019.5 1011.7
17 17.08 З 7 н/о 1/1 600 м
[]
+8.2 +5.0 80 +4 +4 1020.6 1012.7
18 17.08 З 7 н/о н/о +7.6 +4.6 81 +3 +3 1020.3 1012.4
19 17.08 З 6 н/о н/о +6.0 +4.2 88 +1 +1 1019.8 1012.0
20 17.08 З 7 н/о 8/0
[]
+5.8 +4.0 88 0 0 1019.8 1012.0
21 17.08 З 7 н/о н/о +5.5 +2.8 83 0 0 1020.3 1012.4
22 17.08 З 7 н/о н/о +5.0 +2.7 85 -0 -0 1020.4 1012.5
23 17.08 З 10 н/о 1/0
[]
+7.3 +3.0 74 +2 +2 1020.7 1012.8
00 18.08 З 10 н/о н/о +9.4 +3.8 68 +5 +5 1021.7 1013.8
01 18.08 З 10 н/о н/о +10.9 +6.5 74 +7 +7 1022.3 1014.4
02 18.08 ЮЗ 10 н/о {туман} 9/9 1000 м
[]
+11.7 +6.8 72 +8 +8 1023.0 1015.1 +4.9
03 18.08 ЮЗ 11 н/о н/о +12.5 +6.1 65 +9 +9 1023.7 1015.8
04 18.08 ЮЗ 11 н/о н/о +12.0 +5.6 65 +8 +8 1024.4 1016.5
05 18.08 ЮЗ 11 5000 м туман местами 10/10 600 м
[]
+11.7 +6.4 70 +8 +8 1025.0 1017.1 0.8
06 18.08 ЮЗ 11 н/о н/о +12.2 +6.9 70 +9 +9 1025.7 1017.8
07 18.08 ЮЗ 13 н/о н/о +11.7 +5.3 65 +8 +8 1026.5 1018.6
08 18.08 ЮЗ 9 н/о {туман} н/о +11.1 +5.0 66 +8 +8 1027.4 1019.5
09 18.08 ЮЗ 6 н/о н/о +10.2 +2.3 58 +7 +7 1028.6 1020.7
10 18.08 ЮЗ 7 н/о н/о +9.0 +5.7 80 +5 +5 1029.3 1021.4
11 18.08 ЮЗ 5 н/о {туман} 10/10 1000 м
[]
+8.6 +4.8 77 +5 +5 1030.0 1022.1 0.4
12 18.08 ЮЗ 4 н/о н/о +8.8 +5.7 81 +6 +6 1030.5 1022.6
13 18.08 ЮЗ 6 н/о н/о +9.4 +5.4 76 +6 +6 1030.9 1023.0
14 18.08 Ю 6 н/о 10/10 600 м
[]
+8.7 +4.7 76 +5 +5 1030.7 1022.8 +14.1
15 18.08 Ю 5 н/о н/о +9.7 +5.7 76 +7 +7 1031.1 1023.2
16 18.08 Ю 5 н/о н/о +8.9 +7.4 90 +5 +5 1031.1 1023.2
17 18.08 ЮЗ 4 н/о 1/1 600 м
[]
+8.1 +6.2 88 +5 +5 1031.1 1023.2
18 18.08 Ю 4 н/о н/о +8.3 +7.1 92 +5 +5 1031.2 1023.3
19 18.08 ЮЗ 4 н/о н/о +8.1 +7.0 93 +5 +5 1031.3 1023.4
20 18.08 ЮЗ 4 н/о 10/10 1000 м
[]
+8.7 +7.6 93 +6 +6 1031.5 1023.6
21 18.08 Ю 3 н/о н/о +8.2 +6.3 88 +5 +5 1032.4 1024.5
22 18.08 Ю 4 н/о н/о +9.1 +5.5 78 +6 +6 1033.5 1025.5
23 18.08 ЮВ 3 н/о 10/10 600 м
[]
+10.8 +7.9 82 +9 +9 1034.3 1026.3 1
00 19.08 ЮВ 6 н/о н/о +12.0 +8.5 79 +9 +9 1035.1 1027.1
01 19.08 Ю 5 н/о н/о +13.7 +7.0 64 +12 +12 1035.6 1027.6
02 19.08 ЮЗ 5 н/о 10/10 1000 м
[]
+14.1 +6.0 58 +12 +12 1035.8 1027.8 +7.8
03 19.08 Ю 6 н/о н/о +15.2 +7.3 59 +14 +14 1035.3 1027.3
05 19.08 ЮЗ 6 н/о 10/10 1000 м
[]
+14.7 +7.3 61 +13 +13 1034.7 1026.7
06 19.08 Ю 6 н/о н/о +15.4 +6.2 54 +14 +14 1034.4 1026.4
07 19.08 Ю 6 н/о н/о +14.3 +6.2 58 +13 +13 1034.6 1026.6

 

Местоположение метеостанции Наллабор (Южная Австралия, Австралия): широта -31.45 долгота 130.90 высота над уровнем моря 65 м.

В архиве по умолчанию представлена погода в Наллаборе за последнюю неделю. Архивные данные за месяц целиком и за предыдущие месяцы, начиная с января 2011 года, Вы можете получить, выбрав интересующий диапазон дат из раскрывающегося списка и нажав кнопку "Ввод!".


*Определитесь, кто Вы:
робот инопланетянин человек

Внимание! Время в таблицах - всемирное. Для получения местного времени необходимо прибавить поправку, которая равна 9.5 ч.

Смотрите также архив погоды в соседних городах и на ближайших метеорологических станциях:

Погода в Евкле (Западная Австралия, Австралия) (193 км)
Погода в Форресте (Западная Австралия, Австралия) (274 км)
Погода в Сидуне (Южная Австралия, Австралия) (275 км)
Погода в Ред Рокс Пойнт (Западная Австралия, Австралия) (329 км)
Погода в Таркуле (Южная Австралия, Австралия) (360 км)
Погода в Миннипа Пирса (Южная Австралия, Австралия) (429 км)
Погода в Кубер-Педи (Южная Австралия, Австралия) (454 км)
Погода в Уудинне (Южная Австралия, Австралия) (463 км)
Погода в Колте (Южная Австралия, Австралия) (529 км)
Погода в Камминсе (Южная Австралия, Австралия) (547 км)

Пояснения к столбцам:

Ветер - указаны скорость ветра в м/с - средняя за 10 мин, порывы в срок и между сроками (в фигурных скобках) и направление, откуда дует ветер: С - северный, СВ - северо-восточный, В - восточный, ЮВ - юго-восточный, Ю - южный, ЮЗ - юго-западный, З - западный, СЗ - северо-западный.
Видимость - горизонтальная дальность видимости в метрах или километрах. При видимости от 1 до 10 км при отсутствии осадков обычно наблюдается дымка, при ухудшении видимости до 1 км и менее - туман. В сухую погоду видимость может ухудшаться дымом, пылью или мглою.
Явления - указаны атмосферные явления, наблюдавшиеся в срок или в последний час перед сроком; фигурными скобками обозначены явления, наблюдавшиеся между сроками (за 1-3 часа до срока); квадратными скобками обозначены град или гололедные отложения с указанием их диаметра в мм.
Облачность - указаны через наклонную черту общая и нижняя облачность в баллах и высота нижней границы облаков в метрах; квадратными скобками обозначены формы облаков: Ci - перистые, Cs - перисто-слоистые, Cc - перисто-кучевые, Ac - высококучевые, As - высокослоистые, Sc - слоисто-кучевые, Ns - слоисто-дождевые, Cu - кучевые, Cb - кучево-дождевые. Подробнее классификацию облаков см. в Атласе облаков (PDF).
T - Температура воздуха - температура, измеренная на высоте 2 м над землей.
Td - Температура точки росы - температура, при понижении до которой содержащийся в воздухе водяной пар достигнет насыщения.
f - Относительная влажность воздуха - влажноcть воздуха, измеренная на высоте 2 м над землей.
Te - Эффективная температура - температура, которую ощущает одетый по сезону человек в тени. Характеристика душности погоды. При расчете учитывается влияние влажности воздуха и скорости ветра на теплоощущения человека.
Tes - Эффективная температура на солнце - температура, которую ощущает человек, с поправкой на солнечный нагрев. Характеристика знойности погоды. Зависит от высоты солнца над горизонтом, облачности и скорости ветра. Ночью, в пасмурную погоду, а также при ветре 12 м/с и более поправка равна нулю.
P - Атмосферное давление - приведенное к уровню моря атмосферное давление.
Po - Атмосферное давление - измеренное на уровне метеостанции атмосферное давление.
Tmin - Минимальная температура - минимум температуры воздуха на высоте 2 м над землей.
Tmax - Максимальная температура - максимум температуры воздуха на высоте 2 м над землей.
R - Количество осадков - Количество выпавших осадков за период времени, мм. При наведении курсора мыши на число - период времени, за который выпало указанное количество осадков.
R24 - Количество осадков - Количество выпавших осадков за 24 часа, мм.
S - Снежный покров - Высота снежного покрова, см. При наведении курсора мыши на число - состояние снежного покрова и степень покрытия местности в баллах.